[ hide orbit diagram ]
For accurate long-term ephemerides, please instead use our Horizons system.This orbit viewer was implemented using two-body methods, and hence should not be used for determining accurate long-term trajectories (over several years or decades) or planetary encounter circumstances.
Orbital Elements at Epoch 2459000.5 (2020-May-31.0) TDB
Reference: JPL 9 (heliocentric ecliptic J2000)
Element | Value | Uncertainty (1-sigma) | Units |
e | .2050813541463096 | 8.7048e-08 | |
a | 2.611374245266639 | 2.1507e-08 | au |
q | 2.07583007886456 | 2.3861e-07 | au |
i | .3699762261672212 | 6.5908e-06 | deg |
node | 67.32377919165209 | 0.0013262 | deg |
peri | 335.8795259168396 | 0.0013265 | deg |
M | 16.92099494763109 | 2.6026e-05 | deg |
tp | 2458928.052150819940 (2020-Mar-19.55215082) | 0.00011088 | TDB |
period | 1541.352963318098 4.22 | 1.9041e-05 5.213e-08 | d yr |
n | .2335610392735883 | 2.8853e-09 | deg/d |
Q | 3.146918411668718 | 2.5917e-08 | au |
|
| | Orbit Determination Parameters
Additional Information
|
[ hide covariance matrix ]
Orbital Elements at Epoch 2457214.5 (2015-Jul-11.0) TDB
Reference: JPL 9 (heliocentric ecliptic J2000)
Element | Value | Uncertainty (1-sigma) | Units |
e | .204907092857028 | 8.802e-08 | |
q | 2.076732423315911 | 2.4172e-07 | au |
tp | 2457380.927132630293 (2015-Dec-24.42713263) | 9.9962e-05 | TDB |
node | 66.93267683929626 | 0.0013062 | deg |
peri | 335.3120225174242 | 0.0013066 | deg |
i | .3747989494090365 | 6.6372e-06 | deg |
|
| | Orbit Determination Parameters
Additional Information
|
Orbit Covariance (6×6)
|
|
e |
q |
tp |
node |
peri |
i |
e |
7.747483504007346E-15 |
-2.12433350507743E-14 |
-4.619028029962662E-12 |
-1.08417947836197E-13 |
-1.008849106982537E-12 |
-2.196320702115432E-15 |
q |
-2.12433350507743E-14 |
5.842827106832565E-14 |
1.302274833134908E-11 |
2.733367566141867E-13 |
2.893693633430979E-12 |
6.154142319165406E-15 |
tp |
-4.619028029962662E-12 |
1.302274833134908E-11 |
9.992399784283131E-9 |
-9.394136940628659E-12 |
2.96805116030586E-9 |
2.624735882867171E-12 |
node |
-1.08417947836197E-13 |
2.733367566141867E-13 |
-9.394136940628659E-12 |
1.706238646228272E-6 |
-1.706206457737096E-6 |
-5.20509187052754E-9 |
peri |
-1.008849106982537E-12 |
2.893693633430979E-12 |
2.96805116030586E-9 |
-1.706206457737096E-6 |
1.707080151061987E-6 |
5.2057129637734E-9 |
i |
-2.196320702115432E-15 |
6.154142319165406E-15 |
2.624735882867171E-12 |
-5.20509187052754E-9 |
5.2057129637734E-9 |
4.40527064870078E-11 |
|
Physical Parameter Table
Parameter |
Symbol |
Value |
Units |
Sigma |
Reference |
Notes |
absolute magnitude |
H |
18.1 |
|
n/a |
MPO495192 |
|
|
442455 (2011 UP243) Discovered 1994-Oct-26 by Spacewatch at Kitt Peak |
Reference: | Last Updated: 2015-09-02 |
|
Alternate Designations
2011 UP243 = 1994 UK4 = 2011 WM79 |
|
|